| time (UTC) | temp F | wind direction | speed knots | gust knots | rain 1hr in | rain 24hr in | rain mn in | humidity % | barometer mb |
| 20260831124548 | 70 | 134 | 2.6 | 6.1 | 0.02 | 0.02 | 0.02 | 86 | 1007.4 |
| 20260831123037 | 72 | 311 | 2.6 | 7.0 | 0.00 | 0.00 | 0.00 | 80 | 1007.1 |
| 20260831121544 | 72 | 302 | 1.7 | 7.0 | 0.00 | 0.00 | 0.00 | 79 | 1007.1 |
| 20260831120037 | 73 | 302 | 1.7 | 10.4 | 0.00 | 0.00 | 0.00 | 75 | 1006.7 |
| 20260831114532 | 75 | 291 | 3.5 | 11.3 | 0.00 | 0.00 | 0.00 | 70 | 1006.5 |
| 20260831113026 | 78 | 320 | 5.2 | 11.3 | 0.00 | 0.00 | 0.00 | 61 | 1006.0 |
| 20260831111522 | 79 | 307 | 0.9 | 1.7 | 0.00 | 0.00 | 0.00 | 58 | 1005.2 |
| 20260831110023 | 79 | 280 | 0.0 | 0.9 | 0.00 | 0.00 | 0.00 | 58 | 1005.1 |
| 20260831104519 | 78 | 280 | 0.0 | 0.0 | 0.00 | 0.00 | 0.00 | 60 | 1004.5 |
| 20260831103027 | 79 | 280 | 0.0 | 0.0 | 0.00 | 0.00 | 0.00 | 59 | 1004.4 |
| 20260831101524 | 79 | 280 | 0.0 | 0.9 | 0.00 | 0.00 | 0.00 | 57 | 1004.4 |
| 20260831100018 | 78 | 280 | 0.0 | 0.0 | 0.00 | 0.00 | 0.00 | 61 | 1004.4 |
| 20260831094516 | 79 | 280 | 0.0 | 0.0 | 0.00 | 0.00 | 0.00 | 60 | 1004.2 |
| 20260831093032 | 80 | 280 | 0.0 | 0.0 | 0.00 | 0.00 | 0.00 | 55 | 1004.4 |
| 20260831091514 | 79 | 280 | 0.0 | 0.0 | 0.00 | 0.00 | 0.00 | 56 | 1004.2 |
| 20260831090013 | 78 | 280 | 0.0 | 0.0 | 0.00 | 0.00 | 0.00 | 60 | 1004.2 |
| 20260831084512 | 79 | 280 | 0.0 | 0.0 | 0.00 | 0.00 | 0.00 | 57 | 1004.3 |
| 20260831083010 | 80 | 280 | 0.0 | 0.0 | 0.00 | 0.00 | 0.00 | 54 | 1004.4 |
| 20260831081506 | 80 | 280 | 0.0 | 0.0 | 0.00 | 0.00 | 0.00 | 58 | 1004.4 |
| 20260831080004 | 80 | 280 | 0.0 | 0.0 | 0.00 | 0.00 | 0.00 | 56 | 1004.5 |
| 20260831074601 | 82 | 280 | 0.0 | 0.0 | 0.00 | 0.00 | 0.00 | 53 | 1004.8 |
| 20260831073103 | 82 | 280 | 0.0 | 0.0 | 0.00 | 0.00 | 0.00 | 54 | 1004.5 |
| 20260831071611 | 84 | 280 | 0.0 | 0.0 | 0.00 | 0.00 | 0.00 | 47 | 1004.7 |
| 20260831070053 | 84 | 280 | 0.0 | 0.0 | 0.00 | 0.00 | 0.00 | 47 | 1004.8 |
| 20260831064553 | 85 | 280 | 0.0 | 0.9 | 0.00 | 0.00 | 0.00 | 47 | 1004.7 |
| 20260831063054 | 84 | 282 | 0.0 | 0.0 | 0.00 | 0.00 | 0.00 | 49 | 1004.8 |
| 20260831061552 | 84 | 282 | 0.0 | 0.0 | 0.00 | 0.00 | 0.00 | 48 | 1004.8 |
| 20260831054551 | 85 | 269 | 0.0 | 3.5 | 0.00 | 0.00 | 0.00 | 46 | 1004.6 |
| 20260831053053 | 86 | 319 | 1.7 | 5.2 | 0.00 | 0.00 | 0.00 | 45 | 1004.6 |
| 20260831051549 | 86 | 319 | 0.9 | 7.8 | 0.00 | 0.00 | 0.00 | 44 | 1004.2 |
| 20260831050049 | 87 | 330 | 5.2 | 12.2 | 0.00 | 0.00 | 0.00 | 44 | 1004.0 |
| 20260831044550 | 87 | 333 | 6.1 | 13.0 | 0.00 | 0.00 | 0.00 | 43 | 1004.1 |
| 20260831043048 | 87 | 297 | 3.5 | 10.4 | 0.00 | 0.00 | 0.00 | 42 | 1004.1 |
| 20260831041547 | 87 | 315 | 3.5 | 13.9 | 0.00 | 0.00 | 0.00 | 41 | 1004.0 |
| 20260831040047 | 88 | 280 | 5.2 | 11.3 | 0.00 | 0.00 | 0.00 | 41 | 1003.8 |
| 20260831034545 | 88 | 288 | 7.0 | 11.3 | 0.00 | 0.00 | 0.00 | 39 | 1003.7 |
| 20260831033051 | 89 | 318 | 7.8 | 13.0 | 0.00 | 0.00 | 0.00 | 38 | 1003.3 |
| 20260831031544 | 89 | 316 | 7.0 | 13.9 | 0.00 | 0.00 | 0.00 | 38 | 1002.9 |
| 20260831030043 | 92 | 321 | 6.1 | 9.6 | 0.00 | 0.00 | 0.00 | 36 | 1002.6 |
| 20260831024543 | 92 | 328 | 4.3 | 6.1 | 0.00 | 0.00 | 0.00 | 34 | 1002.3 |
| 20260831023043 | 92 | 319 | 3.5 | 7.0 | 0.00 | 0.00 | 0.00 | 33 | 1002.0 |
| 20260831021542 | 92 | 319 | 2.6 | 7.0 | 0.00 | 0.00 | 0.00 | 33 | 1001.6 |
| 20260831014539 | 93 | 316 | 2.6 | 4.3 | 0.00 | 0.00 | 0.00 | 33 | 1001.5 |
| 20260831013039 | 94 | 298 | 2.6 | 6.1 | 0.00 | 0.00 | 0.00 | 32 | 1001.4 |
| 20260831011539 | 94 | 319 | 1.7 | 5.2 | 0.00 | 0.00 | 0.00 | 31 | 1001.3 |
| 20260831010037 | 95 | 312 | 1.7 | 4.3 | 0.00 | 0.00 | 0.00 | 31 | 1001.2 |
| 20260831004545 | 97 | 300 | 1.7 | 6.1 | 0.00 | 0.00 | 0.00 | 29 | 1001.2 |
| 20260831003036 | 99 | 205 | 0.0 | 7.0 | 0.00 | 0.00 | 0.00 | 29 | 1001.3 |
| 20260831001535 | 99 | 265 | 1.7 | 7.0 | 0.00 | 0.00 | 0.00 | 28 | 1001.4 |
| 20260831000035 | 99 | 340 | 3.5 | 6.1 | 0.00 | 0.00 | 0.00 | 28 | 1001.4 |
| 20260830234542 | 99 | 304 | 0.9 | 5.2 | 0.00 | 0.00 | 0.00 | 29 | 1001.3 |
| 20260830233031 | 99 | 317 | 0.9 | 4.3 | 0.00 | 0.00 | 0.00 | 28 | 1001.4 |
| 20260830231529 | 99 | 133 | 0.9 | 5.2 | 0.00 | 0.00 | 0.00 | 28 | 1001.6 |
| 20260830230026 | 98 | 325 | 3.5 | 8.7 | 0.00 | 0.00 | 0.00 | 29 | 1002.0 |
| 20260830224524 | 99 | 330 | 3.5 | 6.1 | 0.00 | 0.00 | 0.00 | 29 | 1002.2 |
| 20260830223021 | 99 | 231 | 2.6 | 8.7 | 0.00 | 0.00 | 0.00 | 28 | 1002.5 |
| 20260830221519 | 100 | 217 | 2.6 | 7.0 | 0.00 | 0.00 | 0.00 | 28 | 1002.7 |
| 20260830220015 | 99 | 221 | 0.9 | 5.2 | 0.00 | 0.00 | 0.00 | 29 | 1002.9 |
| 20260830214512 | 99 | 245 | 2.6 | 7.8 | 0.00 | 0.00 | 0.00 | 28 | 1003.2 |
| 20260830213012 | 100 | 62 | 0.0 | 3.5 | 0.00 | 0.00 | 0.00 | 27 | 1003.3 |
| 20260830211503 | 98 | 218 | 1.7 | 7.8 | 0.00 | 0.00 | 0.00 | 29 | 1003.6 |
| 20260830210003 | 97 | 328 | 2.6 | 8.7 | 0.00 | 0.00 | 0.00 | 30 | 1003.9 |
| 20260830204610 | 99 | 308 | 2.6 | 5.2 | 0.00 | 0.00 | 0.00 | 30 | 1004.2 |
| 20260830203108 | 97 | 316 | 2.6 | 4.3 | 0.00 | 0.00 | 0.00 | 31 | 1004.6 |
| 20260830201602 | 98 | 118 | 3.5 | 6.1 | 0.00 | 0.00 | 0.00 | 30 | 1004.7 |
| 20260830200056 | 96 | 311 | 1.7 | 5.2 | 0.00 | 0.00 | 0.00 | 33 | 1005.0 |
| 20260830194554 | 97 | 156 | 1.7 | 7.0 | 0.00 | 0.00 | 0.00 | 31 | 1005.1 |
| 20260830193052 | 95 | 205 | 1.7 | 5.2 | 0.00 | 0.00 | 0.00 | 32 | 1005.4 |
| 20260830191554 | 96 | 4 | 1.7 | 5.2 | 0.00 | 0.00 | 0.00 | 33 | 1005.8 |
| 20260830190049 | 96 | 276 | 0.9 | 4.3 | 0.00 | 0.00 | 0.00 | 33 | 1006.0 |
| 20260830184550 | 94 | 294 | 1.7 | 5.2 | 0.00 | 0.00 | 0.00 | 35 | 1006.1 |
| 20260830183146 | 93 | 316 | 0.9 | 4.3 | 0.00 | 0.00 | 0.00 | 36 | 1006.3 |
| 20260830181544 | 94 | 338 | 0.0 | 4.3 | 0.00 | 0.00 | 0.00 | 36 | 1006.5 |
| 20260830180041 | 93 | 111 | 1.7 | 5.2 | 0.00 | 0.00 | 0.00 | 37 | 1006.7 |
| 20260830174541 | 90 | 233 | 1.7 | 4.3 | 0.00 | 0.00 | 0.00 | 40 | 1006.7 |
| 20260830173037 | 91 | 268 | 0.9 | 4.3 | 0.00 | 0.00 | 0.00 | 40 | 1006.8 |
| 20260830171535 | 90 | 136 | 0.9 | 3.5 | 0.00 | 0.00 | 0.00 | 41 | 1006.9 |
| 20260830170032 | 87 | 303 | 0.0 | 1.7 | 0.00 | 0.00 | 0.00 | 43 | 1006.9 |
| 20260830164538 | 88 | 300 | 0.0 | 2.6 | 0.00 | 0.00 | 0.00 | 43 | 1006.9 |
| 20260830163031 | 87 | 281 | 0.9 | 1.7 | 0.00 | 0.00 | 0.00 | 45 | 1007.0 |
| 20260830161536 | 86 | 303 | 0.0 | 0.9 | 0.00 | 0.00 | 0.00 | 45 | 1007.1 |
| 20260830160030 | 85 | 298 | 0.0 | 0.9 | 0.00 | 0.00 | 0.00 | 48 | 1007.2 |
| 20260830154536 | 85 | 302 | 0.0 | 0.9 | 0.00 | 0.00 | 0.00 | 48 | 1007.2 |
| 20260830153043 | 86 | 301 | 0.0 | 0.9 | 0.00 | 0.00 | 0.00 | 45 | 1007.1 |
| 20260830151525 | 84 | 301 | 0.0 | 0.0 | 0.00 | 0.00 | 0.00 | 49 | 1006.9 |
| 20260830150025 | 81 | 301 | 0.0 | 0.0 | 0.00 | 0.00 | 0.00 | 55 | 1007.0 |
| 20260830144524 | 80 | 301 | 0.0 | 0.0 | 0.00 | 0.00 | 0.00 | 64 | 1007.0 |
| 20260830143028 | 79 | 301 | 0.0 | 0.0 | 0.00 | 0.00 | 0.00 | 64 | 1007.0 |
| 20260830141523 | 78 | 301 | 0.0 | 0.0 | 0.00 | 0.00 | 0.00 | 60 | 1007.1 |
| 20260830140024 | 78 | 301 | 0.0 | 0.0 | 0.00 | 0.00 | 0.00 | 62 | 1007.3 |
| 20260830134530 | 79 | 301 | 0.0 | 0.0 | 0.00 | 0.00 | 0.00 | 60 | 1007.3 |
| 20260830133018 | 79 | 301 | 0.0 | 0.0 | 0.00 | 0.00 | 0.00 | 59 | 1007.3 |
| 20260830131515 | 79 | 301 | 0.0 | 0.9 | 0.00 | 0.00 | 0.00 | 55 | 1007.2 |
| 20260830130014 | 80 | 302 | 0.0 | 0.9 | 0.00 | 0.00 | 0.00 | 53 | 1007.1 |